Location: Fort Wayne
(41.1310°N, 85.1290°W)
Time: 14:45:11
(UTC-05:00)

BREEZE-M DEB (TANK) - Visible Passes

Search period start: 26 February 2017 00:00
Search period end: 08 March 2017 00:00
Orbit: 271 x 13291 km, 49.6° (Epoch: 25 February)

Date Brightness Start Highest point End Pass type
(mag) Time Alt. Az. Time Alt. Az. Time Alt. Az.
26 Feb 8.4 00:02:49 10° WNW 01:32:06 74° WSW 02:48:08 10° SSE visible
26 Feb 8.7 05:09:22 10° NW 05:46:01 14° WNW 06:05:41 13° W visible
26 Feb 8.6 20:36:50 10° W 21:21:58 77° N 23:22:11 10° ESE visible
27 Feb 8.3 01:13:35 10° NW 02:41:18 56° WSW 03:50:50 10° S visible
27 Feb 7.4 17:18:45 10° SW 17:35:35 82° SE 19:15:57 10° ENE visible
27 Feb 8.6 21:44:33 10° WNW 22:50:33 83° NNE 00:33:39 10° SE visible
28 Feb 8.3 02:26:21 10° NW 03:44:17 39° W 04:49:28 10° SSW visible
28 Feb 7.8 18:23:35 10° WSW 18:45:57 83° NNW 20:36:53 14° E visible
28 Feb 8.5 22:53:06 10° WNW 00:14:32 84° SW 01:41:14 10° SSE visible
01 Mar 8.5 03:43:48 10° NW 04:42:55 24° W 05:39:01 10° WSW visible
01 Mar 8.3 19:29:27 10° W 20:01:51 76° N 21:38:10 29° E visible
02 Mar 8.4 00:02:33 10° WNW 01:29:03 68° WSW 02:45:46 10° S visible
02 Mar 9.2 05:32:28 10° WNW 05:38:13 10° WNW 05:44:01 10° WNW visible
02 Mar 8.6 20:36:16 10° W 21:25:16 78° NNE 22:39:44 45° ESE visible
03 Mar 8.3 01:13:17 10° NW 02:36:01 51° W 03:47:05 10° SSW visible
03 Mar 7.5 17:17:17 10° SW 17:34:36 89° SE 19:19:10 10° ENE visible
03 Mar 8.6 21:43:53 10° WNW 22:52:23 87° NE 00:32:29 10° SE visible
04 Mar 8.4 02:26:29 10° NW 03:37:35 34° W 04:43:08 10° SW visible
04 Mar 8.0 18:22:17 10° WSW 18:46:04 79° NNW 20:33:04 18° E visible
04 Mar 8.4 22:52:16 10° WNW 00:12:49 79° WSW 01:38:57 10° SSE visible
05 Mar 9.1 03:46:26 10° NW 04:35:17 19° WNW 04:53:43 18° W visible
05 Mar 8.4 19:28:14 10° W 20:03:20 76° N 21:35:02 32° E visible
06 Mar 8.3 00:01:33 10° NW 01:24:35 62° WSW 02:42:20 10° S visible
06 Mar 8.7 20:34:59 10° WNW 21:27:28 80° NNE 22:37:08 47° ESE visible
07 Mar 8.4 01:12:19 10° NW 02:29:44 45° W 03:41:59 10° SSW visible
07 Mar 7.6 17:15:17 10° WSW 17:33:18 86° NNW 19:21:44 10° ENE visible
